Regional Weather Roundup
Issued by NWS

Home | Current Version | Previous Version | Graphics & Text | Print | Product List | Glossary On
Versions: 1 2 3 4 5 6 7 8 9 10 11 12 13 14 15 16 17 18 19 20 21 22 23 24 25 26 27 28 29 30 31 32 33 34 35 36 37 38 39 40 41 42 43 44 45 46 47 48 49 50
000
ASUS43 KLSX 040510
RWRMO

WEATHER SUMMARY FOR MISSOURI
NATIONAL WEATHER SERVICE SPRINGFIELD MO
1200 AM CDT TUE AUG 04 2015

NOTE: "FAIR" INDICATES FEW OR NO CLOUDS BELOW 12,000 FEET WITH NO
       SIGNIFICANT WEATHER AND/OR OBSTRUCTIONS TO VISIBILITY.
       CURRENT SKY AND/OR WEATHER CONDITIONS ARE NOT AVAILABLE FOR
       CHILLICOTHE AND FARMINGTON.

MOZ001>031-035>038-043-044-053-054-040600-
...NORTHERN AND WESTERN MISSOURI...

CITY           SKY/WX    TMP DP  RH WIND       PRES   REMARKS
KANSAS CTY INT PTCLDY    75  68  78 E9        29.95S
KANSAS C DTWN  PTCLDY    78  69  73 E6        29.93S
LEE`S SUMMIT   PTCLDY    75  68  78 E6        29.95S
ST JOSEPH      PTCLDY    75  68  78 E6        29.94F
CHILLICOTHE      N/A     75  68  78 NE3       29.97S
KIRKSVILLE     MOCLDY    69  64  84 N5        29.98S

$$
MOZ066>068-077>081-088>096-101>105-040600-
...SOUTHWEST MISSOURI...

CITY           SKY/WX    TMP DP  RH WIND       PRES   REMARKS
SPRINGFIELD    PTCLDY    76  66  71 S5        29.97S
JOPLIN         CLEAR     73  65  75 CALM      29.95F

$$
MOZ032>034-039>042-045>050-055>058-069>072-040600-
...CENTRAL MISSOURI...

CITY           SKY/WX    TMP DP  RH WIND       PRES   REMARKS
COLUMBIA       PTCLDY    75  70  84 NE6       29.96S
JEFFERSON CITY PTCLDY    75  71  87 CALM      29.94R
ROLLA          PTCLDY    77  70  79 CALM      29.95F
SEDALIA        MOCLDY    77  71  82 E3        29.96S
WHITEMAN AFB   PTCLDY    76  71  84 E5        29.94R
WARRENSBURG    MOCLDY    73  70  88 NE3       29.94S
OSAGE BEACH    PTCLDY    75  72  88 S3        29.96S

$$
MOZ051-052-059>065-040600-
...EAST CENTRAL MISSOURI...

CITY           SKY/WX    TMP DP  RH WIND       PRES   REMARKS
ST LOUIS INTL  MOCLDY    81  67  62 N6        29.96R
SPIRIT OF STL  PTCLDY    75  73  93 CALM      29.94R
ST CHARLES     PTCLDY    79  68  69 CALM      29.94R

$$
MOZ072>076-082>087-097>100-106>115-040600-
...SOUTH CENTRAL AND SOUTHEAST MISSOURI...

CITY           SKY/WX    TMP DP  RH WIND       PRES   REMARKS
CAPE GIRARDEAU PTCLDY    76  74  93 CALM      29.93R
FARMINGTON     PTCLDY    73  72  94 CALM      30.01R
POPLAR BLUFF   CLEAR     76  74  93 CALM      29.92S
WEST PLAINS    PTCLDY    74  69  85 CALM      29.99F

$$


USA.gov is the U.S. government's official web portal to all federal, state and local government web resources and services.